Location: Mainz-Finthen
(49.9906°N, 8.1713°E)
Time: 00:01:19
(UTC+00:00)

BEESAT - Pass Details

Date: 14 December 2021
Orbit: 699 x 708 km, 98.6° (Epoch: 24 January)

Event Time Altitude Azimuth Distance (km) Brightness Sun altitude
Rises 05:30:26 0° 143° (SE) 3,090 ? -16.3°
Reaches altitude 10° 05:32:46 10° 137° (SE) 2,177 ? -15.9°
Maximum altitude 05:37:16 43° 67° (ENE) 999 ? -15.2°
Drops below altitude 10° 05:41:47 10° 357° (N) 2,195 ? -14.5°
Sets 05:44:08 0° 351° (N) 3,119 ? -14.2°
